Regional Weather Roundup
Issued by NWS Little Rock, AR

Home | Current Version | Previous Version | Graphics & Text | Print | Product List | Glossary On
Versions: 1 2 3 4 5 6 7 8 9 10 11 12 13 14 15 16 17 18 19 20 21 22 23 24 25 26 27 28 29 30 31 32 33 34 35 36 37 38 39 40 41 42 43 44 45 46 47 48 49 50
495
ASUS44 KLZK 241905
RWRLZK

WEATHER ROUNDUP FOR ARKANSAS
NATIONAL WEATHER SERVICE LITTLE ROCK AR
200 PM CDT SAT JUN 24 2017

NOTE: "FAIR" INDICATES FEW OR NO CLOUDS BELOW 12,000 FEET WITH NO
SIGNIFICANT WEATHER AND/OR OBSTRUCTIONS TO VISIBILITY.

ARZ001-003-010-029-242000-
NORTHWEST ARKANSAS

CITY           SKY/WX    TMP DP  RH WIND       PRES   REMARKS
FAYETTEVILLE   CLOUDY    77  56  48 VRB3      30.21F
FORT SMITH     PTSUNNY   83  59  44 NE6       30.16F
HARRISON       CLOUDY    75  56  51 NW6       30.21F
BENTONVILLE    CLOUDY    75  54  46 NE8       30.23F
ROGERS         CLOUDY    75  55  49 N6        30.23F
SILOAM SPGS    CLOUDY    75  52  43 N9        30.21F
HIGHFILL       CLOUDY    79  52  38 N14G21    30.22F
SPRINGDALE     PTSUNNY   77  55  47 NE8G14    30.23F
$$

ARZ004-005-016-242000-
NORTH CENTRAL ARKANSAS

CITY           SKY/WX    TMP DP  RH WIND       PRES   REMARKS
BATESVILLE     CLOUDY    77  59  53 NW6       30.15F
FLIPPIN        MOSUNNY   79  52  38 N5        30.16S
MTN HOME       MOSUNNY   78  55  44 VRB3      30.17F
$$

ARZ040-041-242000-
WEST CENTRAL ARKANSAS

CITY           SKY/WX    TMP DP  RH WIND       PRES   REMARKS
MENA           CLOUDY    81  61  50 N7        30.17S
MOUNT IDA      CLOUDY    79  58  48 VRB3      30.14F
$$

ARZ009-017-025-026-028-242000-
NORTHEAST ARKANSAS

CITY           SKY/WX    TMP DP  RH WIND       PRES   REMARKS
CORNING        LGT RAIN  81  59  47 N8        30.14S
JONESBORO      MOSUNNY   79  60  52 NW10G17   30.13S
WALNUT RIDGE   PTSUNNY   81  59  47 NW9       30.14S
BLYTHEVILLE    PTSUNNY   81  65  58 N9        30.12S
$$

ARZ022-023-033-042-044-242000-
CENTRAL ARKANSAS

CITY           SKY/WX    TMP DP  RH WIND       PRES   REMARKS
LITTLE ROCK    CLOUDY    79  61  53 N10       30.14F
N LITTLE ROCK    N/A     76  63  63 N6        30.13F
JACKSONVILLE   CLOUDY    78  64  61 N5        30.13F
CONWAY           N/A     81  61  50 N10       30.13F
SEARCY         CLOUDY    80  63  55 N9G16     30.15F
HOT SPRINGS    MOSUNNY   79  61  53 N8        30.15F
RUSSELLVILLE   CLOUDY    80  60  50 N7        30.15F
CLINTON        FAIR      79  59  50 CALM      30.16F
$$

ARZ036-242000-
EAST ARKANSAS

CITY           SKY/WX    TMP DP  RH WIND       PRES   REMARKS
WEST MEMPHIS   MOSUNNY   80  66  62 N10       30.11S
$$

ARZ050-053-066-070-073-242000-
SOUTHWEST ARKANSAS

CITY           SKY/WX    TMP DP  RH WIND       PRES   REMARKS
CAMDEN         CLOUDY    84  66  54 N8        30.10F HX  86
TEXARKANA      CLOUDY    78  65  63 NE8       30.12F
EL DORADO      CLOUDY    81  67  62 NE8       30.11S
DE QUEEN       CLOUDY    79  65  62 VRB3      30.11F
$$

ARZ056-057-069-242000-
SOUTHEAST ARKANSAS

CITY           SKY/WX    TMP DP  RH WIND       PRES   REMARKS
PINE BLUFF     CLOUDY    81  65  58 N12G20    30.12F
STUTTGART      CLOUDY   N/A N/A N/A N9        30.13F
MONTICELLO     PTSUNNY   82  67  60 NE6       30.10F

$$






USA.gov is the U.S. government's official web portal to all federal, state and local government web resources and services.